Location: Great Snoring
(52.8667°N, 0.8833°E)
Time: 22:07:29
(UTC+00:00)

Helios 1B rocket - Pass Details

Date: 19 May 2025
Orbit: 497 x 503 km, 98.2° (Epoch: 12 June)

Event Time Altitude Azimuth Distance (km) Brightness Sun altitude
Rises 20:50:50 0° 196° (SSW) 2,578 5.4 -7.2°
Reaches altitude 10° 20:53:13 10° 211° (SSW) 1,700 4.7 -7.4°
Maximum altitude 20:56:11 23° 265° (W) 1,105 4.4 -7.7°
Drops below altitude 10° 20:59:10 10° 320° (NW) 1,715 6.6 -8.0°
Sets 21:01:35 0° 335° (NNW) 2,606 7.6 -8.3°
